Back to Top

Language: 

My Weather Underground Personal Weather Station Historical Data with Graphs...

Delerius Weather Station Historical Data
Daily Summary for February 25, 2017 Units:  English    Metric   Both
« Previous Day
Next Day »
Daily Weekly Monthly Yearly Custom
  High: Low: Average:
Temperature: 51.4 °F 42.9 °F 48.3 °F
Dew Point: 47.0 °F 36.8 °F 44.1 °F
Humidity: 93 % 77 % 85 %
Wind Speed: 21.0 mph 4.0 mph 13.6 mph
Wind Gust: 32.0 mph - -
Wind:- - SW
Pressure: 29.92 in 29.58 in -
Precipitation: 0.04 in    
Historical Graphs
 
 
Tabular Data for February 25, 2017
Time Temperature Dew Point Pressure Wind Wind Speed Wind Gust Humidity Rainfall Rate (Hourly) solar Conditions
00:00 43.6 °F 36.9 °F 29.92 in SSW 9.0 mph 16.0 mph 77 % 0.00 in 0 W/m2
00:05 43.6 °F 36.9 °F 29.92 in South 9.0 mph 16.0 mph 77 % 0.00 in 0 W/m2
00:15 43.5 °F 36.8 °F 29.92 in SSW 10.0 mph 14.0 mph 77 % 0.00 in 0 W/m2
00:20 43.5 °F 37.1 °F 29.91 in South 8.0 mph 8.0 mph 78 % 0.00 in 0 W/m2
00:30 43.5 °F 37.4 °F 29.91 in SSW 9.0 mph 13.0 mph 79 % 0.00 in 0 W/m2
00:35 43.6 °F 37.5 °F 29.90 in SSW 10.0 mph 14.0 mph 79 % 0.00 in 0 W/m2
00:40 43.7 °F 37.9 °F 29.90 in SSW 11.0 mph 11.0 mph 80 % 0.00 in 0 W/m2
00:45 43.7 °F 38.3 °F 29.90 in SW 11.0 mph 11.0 mph 81 % 0.00 in 0 W/m2
00:50 43.8 °F 38.3 °F 29.89 in SW 11.0 mph 16.0 mph 81 % 0.00 in 0 W/m2
00:55 43.8 °F 38.7 °F 29.89 in SSW 11.0 mph 16.0 mph 82 % 0.00 in 0 W/m2
01:05 43.7 °F 39.5 °F 29.89 in SSW 12.0 mph 18.0 mph 85 % 0.00 in 0 W/m2
01:10 43.4 °F 39.5 °F 29.90 in SW 13.0 mph 13.0 mph 86 % 0.00 in 0 W/m2
01:15 43.3 °F 39.7 °F 29.90 in SSW 12.0 mph 16.0 mph 87 % 0.00 in 0 W/m2
01:20 43.3 °F 40.0 °F 29.90 in SSW 11.0 mph 11.0 mph 88 % 0.00 in 0 W/m2
01:25 43.2 °F 39.9 °F 29.89 in SSE 10.0 mph 18.0 mph 88 % 0.00 in 0 W/m2
01:30 43.2 °F 39.9 °F 29.89 in South 10.0 mph 10.0 mph 88 % 0.00 in 0 W/m2
01:35 43.2 °F 39.9 °F 29.89 in South 9.0 mph 16.0 mph 88 % 0.00 in 0 W/m2
01:40 43.2 °F 39.9 °F 29.89 in SSE 9.0 mph 9.0 mph 88 % 0.00 in 0 W/m2
01:45 43.2 °F 39.9 °F 29.88 in ESE 9.0 mph 12.0 mph 88 % 0.00 in 0 W/m2
01:55 43.1 °F 39.8 °F 29.86 in South 11.0 mph 11.0 mph 88 % 0.00 in 0 W/m2
02:00 43.1 °F 40.1 °F 29.86 in SSE 10.0 mph 10.0 mph 89 % 0.00 in 0 W/m2
02:05 43.0 °F 40.0 °F 29.85 in South 9.0 mph 13.0 mph 89 % 0.00 in 0 W/m2
02:10 43.0 °F 40.0 °F 29.85 in South 8.0 mph 8.0 mph 89 % 0.00 in 0 W/m2
02:15 43.0 °F 40.3 °F 29.84 in South 8.0 mph 16.0 mph 90 % 0.00 in 0 W/m2
02:20 42.9 °F 40.2 °F 29.84 in South 8.0 mph 16.0 mph 90 % 0.00 in 0 W/m2
02:25 42.9 °F 40.5 °F 29.84 in SSE 7.0 mph 16.0 mph 91 % 0.06 in 0 W/m2
02:30 42.9 °F 40.5 °F 29.83 in SSE 7.0 mph 7.0 mph 91 % 0.06 in 0 W/m2
02:40 43.2 °F 40.8 °F 29.84 in SSW 6.0 mph 6.0 mph 91 % 0.00 in 0 W/m2
02:45 43.3 °F 41.1 °F 29.84 in SSE 4.0 mph 16.0 mph 92 % 0.00 in 0 W/m2
02:55 43.6 °F 41.1 °F 29.84 in SW 5.0 mph 16.0 mph 91 % 0.00 in 0 W/m2
03:00 43.9 °F 41.4 °F 29.83 in SW 9.0 mph 16.0 mph 91 % 0.00 in 0 W/m2
03:05 44.1 °F 41.6 °F 29.83 in SSW 10.0 mph 16.0 mph 91 % 0.00 in 0 W/m2
03:15 44.3 °F 41.6 °F 29.81 in SSW 12.0 mph 12.0 mph 90 % 0.00 in 0 W/m2
03:20 44.5 °F 41.7 °F 29.81 in SSW 11.0 mph 16.0 mph 90 % 0.00 in 0 W/m2
03:25 44.6 °F 41.8 °F 29.81 in SW 11.0 mph 16.0 mph 90 % 0.00 in 0 W/m2
03:30 44.9 °F 42.1 °F 29.81 in SW 13.0 mph 20.0 mph 90 % 0.00 in 0 W/m2
03:35 45.0 °F 42.2 °F 29.81 in SSW 13.0 mph 20.0 mph 90 % 0.00 in 0 W/m2
03:45 45.1 °F 42.1 °F 29.80 in South 11.0 mph 16.0 mph 89 % 0.00 in 0 W/m2
03:50 45.2 °F 42.2 °F 29.79 in SW 12.0 mph 16.0 mph 89 % 0.00 in 0 W/m2
03:55 45.3 °F 42.2 °F 29.79 in SW 12.0 mph 16.0 mph 89 % 0.00 in 0 W/m2
04:00 45.4 °F 42.3 °F 29.79 in SW 10.0 mph 10.0 mph 89 % 0.00 in 0 W/m2
04:05 45.4 °F 42.3 °F 29.79 in West 9.0 mph 16.0 mph 89 % 0.00 in 0 W/m2
04:10 45.5 °F 42.4 °F 29.80 in SW 9.0 mph 19.0 mph 89 % 0.00 in 0 W/m2
04:20 45.7 °F 42.3 °F 29.79 in West 14.0 mph 16.0 mph 88 % 0.00 in 0 W/m2
04:25 45.8 °F 42.4 °F 29.79 in West 14.0 mph 16.0 mph 88 % 0.00 in 0 W/m2
04:30 45.9 °F 42.2 °F 29.79 in WSW 14.0 mph 16.0 mph 87 % 0.00 in 0 W/m2
04:35 46.0 °F 42.3 °F 29.79 in WSW 14.0 mph 16.0 mph 87 % 0.00 in 0 W/m2
04:40 46.1 °F 42.4 °F 29.79 in SW 15.0 mph 15.0 mph 87 % 0.00 in 0 W/m2
04:45 46.1 °F 42.4 °F 29.79 in SSW 14.0 mph 16.0 mph 87 % 0.00 in 0 W/m2
04:50 46.0 °F 42.3 °F 29.79 in SW 12.0 mph 12.0 mph 87 % 0.00 in 0 W/m2
05:00 46.2 °F 42.5 °F 29.78 in WSW 13.0 mph 16.0 mph 87 % 0.00 in 0 W/m2
05:05 46.3 °F 42.3 °F 29.78 in SW 13.0 mph 18.0 mph 86 % 0.00 in 0 W/m2
05:10 46.4 °F 42.4 °F 29.77 in SSW 15.0 mph 15.0 mph 86 % 0.00 in 0 W/m2
05:15 46.4 °F 42.4 °F 29.76 in SW 15.0 mph 22.0 mph 86 % 0.00 in 0 W/m2
05:25 46.4 °F 42.4 °F 29.76 in WSW 16.0 mph 18.0 mph 86 % 0.00 in 0 W/m2
05:30 46.4 °F 42.4 °F 29.75 in SW 16.0 mph 16.0 mph 86 % 0.00 in 0 W/m2
05:35 46.4 °F 42.4 °F 29.75 in SW 15.0 mph 16.0 mph 86 % 0.00 in 0 W/m2
05:40 46.5 °F 42.5 °F 29.74 in SW 15.0 mph 15.0 mph 86 % 0.00 in 0 W/m2
05:45 46.6 °F 42.6 °F 29.74 in SSW 14.0 mph 16.0 mph 86 % 0.00 in 0 W/m2
05:55 46.7 °F 42.4 °F 29.74 in SW 15.0 mph 19.0 mph 85 % 0.00 in 0 W/m2
06:00 46.8 °F 42.5 °F 29.74 in SW 15.0 mph 25.0 mph 85 % 0.00 in 0 W/m2
06:05 46.8 °F 42.5 °F 29.73 in SW 14.0 mph 25.0 mph 85 % 0.00 in 0 W/m2
06:10 46.8 °F 42.2 °F 29.73 in SW 14.0 mph 19.0 mph 84 % 0.00 in 0 W/m2
06:15 46.8 °F 42.2 °F 29.72 in SW 16.0 mph 21.0 mph 84 % 0.00 in 0 W/m2
06:20 46.8 °F 42.2 °F 29.71 in SW 16.0 mph 16.0 mph 84 % 0.00 in 0 W/m2
06:30 46.6 °F 42.0 °F 29.71 in SW 16.0 mph 22.0 mph 84 % 0.00 in 0 W/m2
06:35 46.7 °F 42.1 °F 29.72 in SW 17.0 mph 27.0 mph 84 % 0.00 in 0 W/m2
06:40 46.8 °F 41.9 °F 29.71 in SSW 19.0 mph 19.0 mph 83 % 0.00 in 0 W/m2
06:45 46.8 °F 41.9 °F 29.71 in SSW 19.0 mph 19.0 mph 83 % 0.00 in 0 W/m2
06:50 46.9 °F 42.0 °F 29.70 in SSW 19.0 mph 23.0 mph 83 % 0.00 in 0 W/m2
07:00 46.9 °F 42.0 °F 29.71 in SSW 19.0 mph 21.0 mph 83 % 0.00 in 0 W/m2
07:05 46.9 °F 42.0 °F 29.70 in SW 19.0 mph 27.0 mph 83 % 0.00 in 0 W/m2
07:10 47.0 °F 42.1 °F 29.70 in SW 21.0 mph 23.0 mph 83 % 0.00 in 0 W/m2
07:15 47.0 °F 42.1 °F 29.71 in SSW 21.0 mph 23.0 mph 83 % 0.00 in 7 W/m2
07:20 46.9 °F 42.0 °F 29.71 in SW 19.0 mph 19.0 mph 83 % 0.00 in 11 W/m2
07:25 46.9 °F 42.0 °F 29.71 in WSW 18.0 mph 19.0 mph 83 % 0.00 in 12 W/m2
07:35 47.1 °F 42.2 °F 29.71 in SW 16.0 mph 20.0 mph 83 % 0.00 in 21 W/m2
07:40 47.3 °F 42.1 °F 29.71 in SW 19.0 mph 25.0 mph 82 % 0.00 in 25 W/m2
07:45 47.5 °F 42.3 °F 29.71 in WSW 20.0 mph 25.0 mph 82 % 0.00 in 30 W/m2
07:50 47.5 °F 42.0 °F 29.71 in SW 19.0 mph 32.0 mph 81 % 0.00 in 37 W/m2
07:55 47.7 °F 42.2 °F 29.72 in SW 20.0 mph 32.0 mph 81 % 0.00 in 42 W/m2
08:05 47.9 °F 42.3 °F 29.72 in SW 20.0 mph 26.0 mph 81 % 0.00 in 46 W/m2
08:10 47.9 °F 42.3 °F 29.71 in WSW 18.0 mph 25.0 mph 81 % 0.00 in 47 W/m2
08:15 48.0 °F 42.4 °F 29.71 in SW 19.0 mph 25.0 mph 81 % 0.00 in 51 W/m2
08:20 48.0 °F 42.4 °F 29.71 in WSW 19.0 mph 20.0 mph 81 % 0.00 in 49 W/m2
08:25 48.0 °F 42.4 °F 29.71 in SW 18.0 mph 20.0 mph 81 % 0.00 in 56 W/m2
08:30 48.0 °F 42.4 °F 29.71 in WSW 18.0 mph 18.0 mph 81 % 0.00 in 65 W/m2
08:40 48.2 °F 42.6 °F 29.70 in WSW 19.0 mph 19.0 mph 81 % 0.00 in 83 W/m2
08:45 48.2 °F 42.6 °F 29.71 in WSW 18.0 mph 19.0 mph 81 % 0.00 in 72 W/m2
08:50 48.3 °F 42.7 °F 29.70 in SW 18.0 mph 18.0 mph 81 % 0.00 in 86 W/m2
08:55 48.4 °F 42.8 °F 29.70 in South 20.0 mph 20.0 mph 81 % 0.00 in 102 W/m2
09:00 48.4 °F 42.8 °F 29.71 in SW 20.0 mph 20.0 mph 81 % 0.00 in 95 W/m2
09:10 48.6 °F 42.7 °F 29.72 in SW 20.0 mph 20.0 mph 80 % 0.00 in 84 W/m2
09:15 48.7 °F 42.8 °F 29.72 in SW 20.0 mph 20.0 mph 80 % 0.00 in 76 W/m2
09:20 48.8 °F 42.9 °F 29.72 in SW 20.0 mph 30.0 mph 80 % 0.00 in 69 W/m2
09:25 48.7 °F 42.8 °F 29.72 in SW 20.0 mph 30.0 mph 80 % 0.00 in 54 W/m2
09:30 48.8 °F 42.9 °F 29.72 in SW 20.0 mph 20.0 mph 80 % 0.00 in 65 W/m2
09:35 48.8 °F 42.9 °F 29.71 in SW 18.0 mph 20.0 mph 80 % 0.00 in 47 W/m2
09:45 48.7 °F 43.1 °F 29.71 in WSW 17.0 mph 20.0 mph 81 % 0.00 in 65 W/m2
09:50 48.7 °F 43.1 °F 29.70 in WSW 17.0 mph 17.0 mph 81 % 0.00 in 62 W/m2
09:55 48.6 °F 43.0 °F 29.71 in SW 16.0 mph 18.0 mph 81 % 0.00 in 74 W/m2
10:00 48.7 °F 43.1 °F 29.71 in WSW 17.0 mph 22.0 mph 81 % 0.00 in 83 W/m2
10:05 48.6 °F 43.4 °F 29.71 in WSW 18.0 mph 22.0 mph 82 % 0.00 in 72 W/m2
10:15 48.4 °F 43.5 °F 29.70 in WSW 18.0 mph 18.0 mph 83 % 0.00 in 42 W/m2
10:20 48.4 °F 43.5 °F 29.70 in WSW 18.0 mph 23.0 mph 83 % 0.00 in 47 W/m2
10:25 48.5 °F 43.6 °F 29.70 in SSW 19.0 mph 23.0 mph 83 % 0.00 in 56 W/m2
10:30 48.6 °F 43.7 °F 29.69 in SW 20.0 mph 31.0 mph 83 % 0.00 in 56 W/m2
10:40 48.6 °F 43.7 °F 29.69 in SW 17.0 mph 17.0 mph 83 % 0.00 in 67 W/m2
10:45 48.5 °F 43.6 °F 29.69 in West 19.0 mph 22.0 mph 83 % 0.00 in 84 W/m2
10:55 48.6 °F 44.0 °F 29.68 in SW 16.0 mph 21.0 mph 84 % 0.00 in 104 W/m2
11:00 48.8 °F 44.2 °F 29.68 in SW 17.0 mph 19.0 mph 84 % 0.00 in 116 W/m2
11:05 48.9 °F 44.0 °F 29.68 in WSW 18.0 mph 19.0 mph 83 % 0.00 in 95 W/m2
11:10 48.9 °F 44.0 °F 29.68 in SW 19.0 mph 19.0 mph 83 % 0.00 in 74 W/m2
11:15 49.0 °F 44.1 °F 29.69 in SW 21.0 mph 21.0 mph 83 % 0.00 in 83 W/m2
11:25 49.1 °F 44.2 °F 29.69 in SW 21.0 mph 23.0 mph 83 % 0.00 in 139 W/m2
11:30 49.1 °F 44.2 °F 29.69 in SW 18.0 mph 21.0 mph 83 % 0.00 in 178 W/m2
11:35 49.3 °F 44.4 °F 29.68 in SW 16.0 mph 21.0 mph 83 % 0.00 in 153 W/m2
11:40 49.4 °F 44.5 °F 29.69 in SW 15.0 mph 15.0 mph 83 % 0.00 in 120 W/m2
11:45 49.5 °F 44.6 °F 29.68 in SW 14.0 mph 18.0 mph 83 % 0.00 in 88 W/m2
11:55 49.6 °F 44.3 °F 29.68 in SW 14.0 mph 14.0 mph 82 % 0.00 in 93 W/m2
12:00 49.7 °F 44.4 °F 29.68 in WSW 16.0 mph 18.0 mph 82 % 0.00 in 102 W/m2
12:05 49.8 °F 44.5 °F 29.68 in SW 16.0 mph 18.0 mph 82 % 0.00 in 67 W/m2
12:15 49.8 °F 44.5 °F 29.68 in SSW 14.0 mph 16.0 mph 82 % 0.00 in 70 W/m2
12:20 49.8 °F 44.5 °F 29.67 in SSW 12.0 mph 12.0 mph 82 % 0.00 in 76 W/m2
12:30 49.9 °F 44.6 °F 29.68 in SW 14.0 mph 19.0 mph 82 % 0.00 in 47 W/m2
12:35 50.0 °F 44.7 °F 29.68 in SW 14.0 mph 19.0 mph 82 % 0.00 in 56 W/m2
12:40 50.0 °F 44.7 °F 29.67 in SSW 13.0 mph 16.0 mph 82 % 0.00 in 67 W/m2
12:45 50.0 °F 44.7 °F 29.68 in WSW 12.0 mph 16.0 mph 82 % 0.00 in 58 W/m2
12:50 50.1 °F 44.8 °F 29.67 in SSE 11.0 mph 11.0 mph 82 % 0.00 in 63 W/m2
12:55 50.2 °F 44.9 °F 29.67 in WSW 9.0 mph 16.0 mph 82 % 0.00 in 105 W/m2
13:00 50.3 °F 45.0 °F 29.67 in SW 8.0 mph 18.0 mph 82 % 0.00 in 97 W/m2
13:05 50.5 °F 45.2 °F 29.67 in SW 9.0 mph 18.0 mph 82 % 0.00 in 135 W/m2
13:10 50.7 °F 45.4 °F 29.66 in WSW 11.0 mph 11.0 mph 82 % 0.00 in 186 W/m2
13:15 50.9 °F 45.6 °F 29.66 in WSW 12.0 mph 12.0 mph 82 % 0.00 in 209 W/m2
13:20 51.1 °F 45.8 °F 29.66 in SSW 11.0 mph 16.0 mph 82 % 0.00 in 178 W/m2
13:30 51.3 °F 45.7 °F 29.66 in SSW 15.0 mph 20.0 mph 81 % 0.00 in 137 W/m2
13:40 51.3 °F 45.7 °F 29.66 in SW 16.0 mph 16.0 mph 81 % 0.00 in 169 W/m2
13:45 51.4 °F 45.8 °F 29.65 in WSW 15.0 mph 16.0 mph 81 % 0.00 in 114 W/m2
13:50 51.3 °F 45.7 °F 29.66 in WSW 13.0 mph 13.0 mph 81 % 0.00 in 95 W/m2
13:55 51.3 °F 46.0 °F 29.65 in SW 13.0 mph 16.0 mph 82 % 0.00 in 139 W/m2
14:00 51.2 °F 46.2 °F 29.66 in South 12.0 mph 16.0 mph 83 % 0.00 in 105 W/m2
14:10 50.9 °F 46.2 °F 29.65 in WSW 13.0 mph 16.0 mph 84 % 0.00 in 100 W/m2
14:15 50.6 °F 46.3 °F 29.65 in WSW 12.0 mph 16.0 mph 85 % 0.00 in 91 W/m2
14:20 50.5 °F 46.2 °F 29.65 in SSW 12.0 mph 16.0 mph 85 % 0.00 in 109 W/m2
14:25 50.4 °F 46.1 °F 29.64 in South 13.0 mph 16.0 mph 85 % 0.00 in 109 W/m2
14:30 50.4 °F 46.4 °F 29.65 in West 14.0 mph 14.0 mph 86 % 0.00 in 88 W/m2
14:35 50.3 °F 46.3 °F 29.64 in SW 13.0 mph 16.0 mph 86 % 0.00 in 70 W/m2
14:45 50.2 °F 46.2 °F 29.64 in SW 12.0 mph 19.0 mph 86 % 0.00 in 86 W/m2
14:50 50.2 °F 46.5 °F 29.64 in SW 13.0 mph 22.0 mph 87 % 0.00 in 84 W/m2
15:00 50.4 °F 46.7 °F 29.63 in SW 14.0 mph 14.0 mph 87 % 0.00 in 156 W/m2
15:05 50.5 °F 46.8 °F 29.63 in SW 15.0 mph 24.0 mph 87 % 0.00 in 186 W/m2
15:10 50.6 °F 46.6 °F 29.63 in WSW 16.0 mph 19.0 mph 86 % 0.00 in 190 W/m2
15:20 50.9 °F 46.9 °F 29.63 in SW 14.0 mph 14.0 mph 86 % 0.00 in 95 W/m2
15:25 50.7 °F 46.7 °F 29.63 in WSW 13.0 mph 16.0 mph 86 % 0.00 in 86 W/m2
15:30 50.3 °F 46.6 °F 29.62 in SW 16.0 mph 16.0 mph 87 % 0.00 in 100 W/m2
15:35 50.2 °F 46.8 °F 29.62 in SW 16.0 mph 16.0 mph 88 % 0.00 in 97 W/m2
15:40 50.1 °F 46.7 °F 29.62 in SW 14.0 mph 16.0 mph 88 % 0.00 in 91 W/m2
15:50 50.3 °F 46.9 °F 29.62 in SW 14.0 mph 14.0 mph 88 % 0.00 in 76 W/m2
15:55 50.5 °F 46.8 °F 29.62 in SW 14.0 mph 16.0 mph 87 % 0.00 in 79 W/m2
16:00 50.5 °F 46.8 °F 29.62 in SW 13.0 mph 13.0 mph 87 % 0.00 in 74 W/m2
16:05 50.5 °F 46.8 °F 29.62 in West 11.0 mph 18.0 mph 87 % 0.00 in 70 W/m2
16:10 50.6 °F 46.9 °F 29.62 in SW 13.0 mph 13.0 mph 87 % 0.00 in 53 W/m2
16:15 50.7 °F 46.7 °F 29.62 in WSW 14.0 mph 14.0 mph 86 % 0.00 in 44 W/m2
16:25 50.8 °F 46.8 °F 29.62 in SW 13.0 mph 24.0 mph 86 % 0.00 in 30 W/m2
16:30 50.8 °F 46.8 °F 29.62 in SSW 14.0 mph 24.0 mph 86 % 0.00 in 39 W/m2
16:35 50.7 °F 46.7 °F 29.62 in WSW 14.0 mph 24.0 mph 86 % 0.00 in 39 W/m2
16:40 50.7 °F 46.7 °F 29.62 in SW 14.0 mph 14.0 mph 86 % 0.00 in 37 W/m2
16:45 50.7 °F 47.0 °F 29.62 in SSW 13.0 mph 24.0 mph 87 % 0.00 in 33 W/m2
16:55 50.7 °F 46.7 °F 29.62 in SW 15.0 mph 16.0 mph 86 % 0.00 in 35 W/m2
17:00 50.7 °F 47.0 °F 29.61 in WSW 12.0 mph 12.0 mph 87 % 0.00 in 33 W/m2
17:05 50.6 °F 46.6 °F 29.61 in West 12.0 mph 16.0 mph 86 % 0.00 in 35 W/m2
17:10 50.6 °F 46.9 °F 29.61 in SW 13.0 mph 13.0 mph 87 % 0.00 in 23 W/m2
17:20 50.6 °F 46.6 °F 29.61 in SSW 9.0 mph 16.0 mph 86 % 0.00 in 9 W/m2
17:25 50.6 °F 46.6 °F 29.61 in SSW 10.0 mph 16.0 mph 86 % 0.00 in 9 W/m2
17:35 50.6 °F 46.6 °F 29.61 in SSW 14.0 mph 16.0 mph 86 % 0.00 in 9 W/m2
17:40 50.5 °F 46.5 °F 29.61 in WSW 13.0 mph 13.0 mph 86 % 0.00 in 7 W/m2
17:45 50.4 °F 46.4 °F 29.61 in SW 12.0 mph 16.0 mph 86 % 0.00 in 5 W/m2
17:50 50.4 °F 46.4 °F 29.61 in SW 14.0 mph 18.0 mph 86 % 0.00 in 0 W/m2
17:55 50.4 °F 46.4 °F 29.60 in SW 15.0 mph 18.0 mph 86 % 0.00 in 0 W/m2
18:05 50.5 °F 46.5 °F 29.60 in SSW 18.0 mph 29.0 mph 86 % 0.00 in 0 W/m2
18:10 50.5 °F 46.5 °F 29.60 in SW 19.0 mph 19.0 mph 86 % 0.00 in 0 W/m2
18:15 50.6 °F 46.6 °F 29.60 in WSW 20.0 mph 20.0 mph 86 % 0.00 in 0 W/m2
18:20 50.7 °F 46.4 °F 29.60 in SW 20.0 mph 20.0 mph 85 % 0.00 in 0 W/m2
18:25 50.8 °F 46.5 °F 29.60 in SSW 18.0 mph 20.0 mph 85 % 0.00 in 0 W/m2
18:35 50.9 °F 46.6 °F 29.59 in SW 16.0 mph 24.0 mph 85 % 0.00 in 0 W/m2
18:40 50.9 °F 46.6 °F 29.59 in SW 17.0 mph 19.0 mph 85 % 0.00 in 0 W/m2
18:45 50.7 °F 46.4 °F 29.58 in SW 16.0 mph 19.0 mph 85 % 0.00 in 0 W/m2
18:55 50.7 °F 46.4 °F 29.58 in SW 19.0 mph 22.0 mph 85 % 0.00 in 0 W/m2
19:00 50.8 °F 46.5 °F 29.58 in SW 18.0 mph 18.0 mph 85 % 0.00 in 0 W/m2
19:10 50.9 °F 46.2 °F 29.59 in SW 18.0 mph 20.0 mph 84 % 0.00 in 0 W/m2
19:15 50.9 °F 46.6 °F 29.59 in WSW 17.0 mph 20.0 mph 85 % 0.00 in 0 W/m2
19:20 50.9 °F 46.6 °F 29.60 in SW 16.0 mph 16.0 mph 85 % 0.00 in 0 W/m2
19:25 50.9 °F 46.6 °F 29.61 in WSW 13.0 mph 16.0 mph 85 % 0.00 in 0 W/m2
19:30 51.0 °F 46.6 °F 29.61 in WSW 11.0 mph 11.0 mph 85 % 0.00 in 0 W/m2
19:35 51.0 °F 46.6 °F 29.62 in SW 10.0 mph 16.0 mph 85 % 0.00 in 0 W/m2
19:45 51.2 °F 46.8 °F 29.63 in WSW 12.0 mph 16.0 mph 85 % 0.00 in 0 W/m2
19:50 51.3 °F 46.6 °F 29.63 in SSW 12.0 mph 12.0 mph 84 % 0.00 in 0 W/m2
19:55 51.3 °F 46.6 °F 29.64 in West 13.0 mph 13.0 mph 84 % 0.00 in 0 W/m2
20:00 51.3 °F 46.6 °F 29.64 in WSW 14.0 mph 14.0 mph 84 % 0.00 in 0 W/m2
20:05 51.3 °F 46.6 °F 29.63 in SW 11.0 mph 16.0 mph 84 % 0.00 in 0 W/m2
20:15 51.1 °F 46.7 °F 29.63 in South 11.0 mph 16.0 mph 85 % 0.00 in 0 W/m2
20:20 51.0 °F 46.6 °F 29.63 in SSW 10.0 mph 10.0 mph 85 % 0.00 in 0 W/m2
20:30 50.8 °F 46.5 °F 29.62 in SSE 9.0 mph 9.0 mph 85 % 0.00 in 0 W/m2
20:35 50.8 °F 46.8 °F 29.62 in SSW 9.0 mph 16.0 mph 86 % 0.00 in 0 W/m2
20:40 50.7 °F 46.7 °F 29.63 in SSW 9.0 mph 9.0 mph 86 % 0.00 in 0 W/m2
20:50 50.6 °F 46.6 °F 29.63 in SW 7.0 mph 16.0 mph 86 % 0.00 in 0 W/m2
20:55 50.5 °F 46.8 °F 29.63 in South 7.0 mph 16.0 mph 87 % 0.00 in 0 W/m2
21:00 50.4 °F 46.7 °F 29.63 in SSW 7.0 mph 16.0 mph 87 % 0.00 in 0 W/m2
21:05 50.3 °F 46.6 °F 29.63 in SSW 8.0 mph 16.0 mph 87 % 0.00 in 0 W/m2
21:10 50.3 °F 46.6 °F 29.63 in SW 9.0 mph 16.0 mph 87 % 0.00 in 0 W/m2
21:15 50.3 °F 46.6 °F 29.62 in SSW 10.0 mph 16.0 mph 87 % 0.00 in 0 W/m2
21:25 50.4 °F 46.7 °F 29.61 in SW 13.0 mph 16.0 mph 87 % 0.00 in 0 W/m2
21:30 50.4 °F 46.7 °F 29.60 in SSW 14.0 mph 18.0 mph 87 % 0.00 in 0 W/m2
21:35 50.4 °F 46.7 °F 29.60 in SSW 15.0 mph 18.0 mph 87 % 0.00 in 0 W/m2
21:40 50.4 °F 46.7 °F 29.60 in SW 16.0 mph 16.0 mph 87 % 0.00 in 0 W/m2
21:45 50.4 °F 46.7 °F 29.60 in SSW 15.0 mph 16.0 mph 87 % 0.00 in 0 W/m2
21:55 50.3 °F 46.6 °F 29.61 in SW 12.0 mph 16.0 mph 87 % 0.00 in 0 W/m2
22:05 50.2 °F 46.8 °F 29.61 in SSW 11.0 mph 16.0 mph 88 % 0.00 in 0 W/m2
22:10 50.2 °F 46.8 °F 29.61 in SW 11.0 mph 16.0 mph 88 % 0.00 in 0 W/m2
22:15 50.2 °F 46.8 °F 29.61 in SSW 9.0 mph 16.0 mph 88 % 0.00 in 0 W/m2
22:20 50.1 °F 46.7 °F 29.61 in SW 10.0 mph 10.0 mph 88 % 0.00 in 0 W/m2
22:30 49.8 °F 46.7 °F 29.60 in WSW 11.0 mph 16.0 mph 89 % 0.00 in 0 W/m2
22:35 49.7 °F 46.9 °F 29.60 in SW 12.0 mph 16.0 mph 90 % 0.00 in 0 W/m2
22:40 49.5 °F 46.7 °F 29.60 in SW 12.0 mph 16.0 mph 90 % 0.00 in 0 W/m2
22:45 49.5 °F 47.0 °F 29.60 in WSW 13.0 mph 16.0 mph 91 % 0.00 in 0 W/m2
22:50 49.5 °F 47.0 °F 29.60 in West 12.0 mph 16.0 mph 91 % 0.00 in 0 W/m2
22:55 49.4 °F 46.9 °F 29.60 in WSW 11.0 mph 16.0 mph 91 % 0.00 in 0 W/m2
23:05 49.3 °F 46.8 °F 29.60 in WSW 10.0 mph 16.0 mph 91 % 0.00 in 0 W/m2
23:10 49.2 °F 46.7 °F 29.60 in WSW 9.0 mph 9.0 mph 91 % 0.00 in 0 W/m2
23:15 49.1 °F 46.9 °F 29.60 in SW 8.0 mph 16.0 mph 92 % 0.00 in 0 W/m2
23:20 49.1 °F 46.9 °F 29.60 in SSW 8.0 mph 16.0 mph 92 % 0.00 in 0 W/m2
23:30 49.0 °F 46.8 °F 29.60 in SSW 8.0 mph 16.0 mph 92 % 0.00 in 0 W/m2
23:40 48.9 °F 47.0 °F 29.60 in SW 9.0 mph 9.0 mph 93 % 0.00 in 0 W/m2
23:45 48.9 °F 47.0 °F 29.60 in West 9.0 mph 16.0 mph 93 % 0.00 in 0 W/m2
23:50 48.9 °F 47.0 °F 29.60 in SW 9.0 mph 16.0 mph 93 % 0.00 in 0 W/m2
23:55 48.9 °F 47.0 °F 29.60 in SW 9.0 mph 16.0 mph 93 % 0.00 in 0 W/m2
Delerius-Weather
Compliments of Weather Underground - 2 mb

Data updates at regular intervals.